カタログに戻る

MSG 3 DEB

COOLER COVER

運用中GEO
NORAD 40871·DEBRIS·🇪🇺 EU

打ち上げ Jul 5, 2012 から Guiana Space Centre

Loading…

TLE

最新Source: Space-Track

元期: Sep 12, 2026, 10:40 UTC

1 40871U 12035E   26255.44458066 -.00000019  00000-0  00000-0 0  9999
2 40871   9.9104  56.6508 0019547 280.0956 323.6919  1.01522519  7883

AllMySatでMSG 3 DEBをリアルタイム追跡

Download on the App Store